EW0734 Weather Reports


Display with metric or nautical units.
time (UTC)temp
F
wind
direction
speed
MPH
gust
MPH
rain 1hr
in
rain 24hr
in
rain mn
in
humidity
%
barometer
mb
20260504050525 45 0.0 0.0 0.00 0.00 0.00 78 1014.5
20260504045525 45 0.0 0.0 0.00 0.00 0.00 78 1014.4
20260504044606 45 0.0 0.0 0.00 0.00 0.00 78 1014.3
20260504043525 45 0.0 0.0 0.00 0.00 0.00 79 1014.3
20260504042525 45 0.0 0.0 0.00 0.00 0.00 79 1014.2
20260504041525 44 0.0 0.0 0.00 0.00 0.00 79 1014.3
20260504040534 44 0.0 0.0 0.00 0.00 0.00 79 1014.3
20260504035525 44 0.0 0.0 0.00 0.00 0.00 80 1014.4
20260504034545 43 0.0 0.0 0.00 0.00 0.00 79 1014.3
20260504033525 43 0.0 0.0 0.00 0.00 0.00 79 1014.3
20260504032525 43 0.0 0.0 0.00 0.00 0.00 79 1014.3
20260504031530 43 0.0 0.0 0.00 0.00 0.00 78 1014.4
20260504030525 43 0.0 0.0 0.00 0.00 0.00 77 1014.4
20260504025525 43 0.0 0.0 0.00 0.00 0.00 76 1014.3
20260504024526 44 0.0 0.0 0.00 0.00 0.00 75 1014.2
20260504023526 44 0.0 0.0 0.00 0.00 0.00 74 1014.3
20260504022526 45 0.0 0.0 0.00 0.00 0.00 73 1014.3
20260504021525 45 0.0 0.0 0.00 0.00 0.00 72 1014.2
20260504020525 46 0.0 0.0 0.00 0.00 0.00 71 1014.1
20260504015525 46 0.0 0.0 0.00 0.00 0.00 69 1014.0
20260504014525 46 0.0 0.0 0.00 0.00 0.00 68 1014.1
20260504013525 47 0.0 0.0 0.00 0.00 0.00 66 1014.1
20260504012545 47 0.0 0.0 0.00 0.00 0.00 64 1013.9
20260504011525 48 0.0 0.0 0.00 0.00 0.00 64 1013.7
20260504010524 49 0.0 0.0 0.00 0.00 0.00 63 1013.7
20260504005525 50 0.0 0.0 0.00 0.00 0.00 60 1013.7
20260504004524 51 0.0 0.0 0.00 0.00 0.00 59 1013.6
20260504003545 51 0.0 0.0 0.00 0.00 0.00 57 1013.5
20260504002525 53 0.0 0.0 0.00 0.00 0.00 56 1013.4
20260504001525 53 0.0 0.0 0.00 0.00 0.00 55 1013.4
20260504000525 54 0.0 0.0 0.00 0.00 0.00 53 1013.4
20260503235525 56 0.0 0.0 0.00 0.00 0.00 51 1013.2
20260503234525 57 0.0 0.0 0.00 0.00 0.00 49 1013.1
20260503233525 58 0.0 0.0 0.00 0.00 0.00 46 1013.0
20260503232545 59 0.0 0.0 0.00 0.00 0.00 42 1013.0
20260503231525 60 0.0 0.0 0.00 0.00 0.00 39 1012.9
20260503230545 60 0.0 0.0 0.00 0.00 0.00 35 1012.9
20260503225544 60 0.0 0.0 0.00 0.00 0.00 36 1013.0
20260503224524 61 0.0 0.0 0.00 0.00 0.00 35 1013.0
20260503223525 61 0.0 1.0 0.00 0.00 0.00 34 1013.2
20260503222525 61 0.0 0.0 0.00 0.00 0.00 33 1013.2
20260503221525 61 0.0 0.0 0.00 0.00 0.00 35 1013.1
20260503220525 62 0.0 2.0 0.00 0.00 0.00 36 1013.2
20260503215544 62 0.0 2.0 0.00 0.00 0.00 34 1013.2
20260503214525 63 0.0 1.0 0.00 0.00 0.00 35 1013.2
20260503213525 63 0.0 1.0 0.00 0.00 0.00 34 1013.3
20260503212524 63 0.0 1.0 0.00 0.00 0.00 33 1013.3
20260503211525 64 0.0 3.0 0.00 0.00 0.00 33 1013.4
20260503210525 63 0.0 1.0 0.00 0.00 0.00 32 1013.3
20260503205529 63 0.0 0.0 0.00 0.00 0.00 33 1013.3
20260503204524 63 0.0 1.0 0.00 0.00 0.00 33 1013.4
20260503203544 64 0.0 2.0 0.00 0.00 0.00 35 1013.5
20260503202524 64 0.0 3.0 0.00 0.00 0.00 33 1013.5
20260503201525 65 0.0 2.0 0.00 0.00 0.00 30 1013.6
20260503200524 65 0.0 2.0 0.00 0.00 0.00 30 1013.8
20260503195525 65 0.0 1.0 0.00 0.00 0.00 32 1014.2
20260503194525 66 0.0 3.0 0.00 0.00 0.00 34 1014.3
20260503193525 66 0.0 2.0 0.00 0.00 0.00 31 1014.4
20260503192545 64 0.0 1.0 0.00 0.00 0.00 34 1014.7
20260503191525 65 0.0 2.0 0.00 0.00 0.00 31 1014.7
20260503190525 65 0.0 3.0 0.00 0.00 0.00 33 1014.9
20260503185525 65 0.0 2.0 0.00 0.00 0.00 32 1015.0
20260503184525 64 0.0 3.0 0.00 0.00 0.00 34 1015.2
20260503183544 65 315 1.0 3.0 0.00 0.00 0.00 32 1015.3
20260503182524 65 0.0 1.0 0.00 0.00 0.00 33 1015.4
20260503181524 65 293 1.0 2.0 0.00 0.00 0.00 33 1015.4
20260503180524 64 0.0 2.0 0.00 0.00 0.00 36 1015.5
20260503175524 64 0.0 3.0 0.00 0.00 0.00 34 1015.5
20260503174524 64 270 1.0 7.0 0.00 0.00 0.00 36 1015.5
20260503173524 63 0.0 2.0 0.00 0.00 0.00 33 1015.5
20260503172525 62 0.0 3.0 0.00 0.00 0.00 33 1015.7
20260503171605 62 0.0 4.0 0.00 0.00 0.00 36 1015.8
20260503170544 63 270 1.0 3.0 0.00 0.00 0.00 35 1015.9
20260503150524 53 270 1.0 6.0 0.00 0.00 0.00 42 1016.8
20260503130525 48 0.0 6.0 0.00 0.00 0.00 59 1016.9
20260503110524 0 0.0 0.0 0.00 0.00 0.00
20260503081025 43 0.0 0.0 0.00 0.00 0.00 65 1013.8
20260503072106 45 0.0 2.0 0.00 0.00 0.00 60 1013.5
20260503071025 46 0.0 1.0 0.00 0.00 0.00 59 1013.3